[[{"header":{"parameterUnit":"m.s-1","parameterCategory":1,"la1":30.2991,"la2":30.254,"lo1":-89.0895,"lo2":-89.0444,"dy":0.0017,"dx":0.0017,"nx":28,"ny":28,"refTime":"2025-04-24T03:00:00:Z","depth":0,"parameterNumber":2,"parameterNumberName":"U-component_of_WINDS"},"data":[0,0,0,0,0,0,0,0,0,0,0,0,0,0,0,0,0,0,0,0,0,0,0,0,0,0,0,0,0,0,0,0,0,0,0,0,0,0,0,0,0,0,0,0,0,0,0,0,0,0,0,0,0,0,0,0,0,0,-0.6804,-0.6805,0,-0.6922,-0.6923,-0.6924,-0.6979,-0.6978,-0.6978,-0.6978,-0.7102,-0.7106,-0.7109,0,0,0,0,0,0,0,0,0,0,0,0,0,-0.663,-0.6633,-0.6804,-0.6805,-0.6807,-0.6921,-0.6923,-0.6925,-0.6979,-0.6978,-0.6978,-0.6978,-0.7101,-0.7105,-0.7109,0,0,0,0,0,0,0,0,0,0,0,0,0,-0.6723,-0.6634,-0.6804,-0.6847,-0.6852,-0.6921,-0.6923,-0.6925,-0.6979,-0.6978,-0.6978,-0.6978,-0.71,-0.7105,-0.711,-0.7145,0,0,-0.7126,-0.7128,0,0,0,0,0,0,0,0,-0.6717,-0.6729,-0.6839,-0.6844,-0.685,-0.6935,-0.6907,-0.6999,-0.6979,-0.6931,-0.6978,-0.6978,-0.7047,-0.7057,-0.7079,-0.7151,-0.7156,-0.7126,-0.7129,-0.7131,-0.7133,0,0,0,0,0,0,0,-0.6711,-0.6724,-0.6851,-0.6841,-0.6848,-0.6863,-0.6876,-0.6925,-0.6989,-0.6935,-0.6939,-0.6952,-0.705,-0.7074,-0.7082,-0.7158,-0.7126,-0.713,-0.7134,-0.7136,-0.7266,-0.7267,0,0,0,0,0,0,-0.6697,-0.6718,-0.6847,-0.6854,-0.6782,-0.6866,-0.688,-0.6908,-0.6988,-0.7,-0.6952,-0.6954,-0.7065,-0.7076,-0.7087,-0.7134,-0.7131,-0.7136,-0.7139,-0.7266,-0.7266,-0.7267,0,0,0,0,0,0,-0.6693,-0.6708,-0.6842,-0.6787,-0.6806,-0.6869,-0.69,-0.6911,-0.6935,-0.7001,-0.7013,-0.6965,-0.7066,-0.708,-0.713,-0.7139,-0.7138,-0.7143,-0.7265,-0.7266,-0.7267,-0.7228,0,0,0,0,0,0,-0.6688,-0.6706,-0.6718,-0.6787,-0.6808,-0.6882,-0.69,-0.6913,-0.6943,-0.6947,-0.7016,-0.7027,-0.7067,-0.7122,-0.7135,-0.7146,-0.7147,-0.7265,-0.7266,-0.7266,-0.7229,-0.7227,-0.7226,0,0,0,0,0,-0.6681,-0.6703,-0.6719,-0.6734,-0.6825,-0.6882,-0.6894,-0.6938,-0.6943,-0.6957,-0.7001,-0.7025,-0.7136,-0.7127,-0.7142,-0.7155,-0.7265,-0.7265,-0.7266,-0.7229,-0.7227,-0.7226,0,0,0,0,0,0,-0.6635,-0.6713,-0.6731,-0.6776,-0.6822,-0.6891,-0.691,-0.6934,-0.698,-0.6982,-0.7036,-0.7051,-0.7097,-0.7131,-0.712,-0.7194,-0.7203,-0.7207,-0.7169,-0.7168,-0.7167,-0.7158,-0.7151,0,0,0,0,0,-0.663,-0.6668,-0.6735,-0.6768,-0.679,-0.6846,-0.6872,-0.6902,-0.6952,-0.6972,-0.7019,-0.7068,-0.7114,-0.7143,-0.7189,-0.7234,-0.7251,-0.7251,-0.7249,-0.7248,-0.725,-0.7278,-0.7279,-0.727,-0.727,-0.727,0,0,-0.662,-0.6667,-0.6688,-0.676,-0.6799,-0.6839,-0.6862,-0.6903,-0.6933,-0.6979,-0.7029,-0.7065,-0.7124,-0.7172,-0.7195,-0.7202,-0.7257,-0.7249,-0.7247,-0.7251,-0.7279,-0.728,-0.7281,-0.727,-0.727,-0.727,0,0,-0.6622,-0.6661,-0.6693,-0.6732,-0.6791,-0.6828,-0.6836,-0.6902,-0.6927,-0.6978,-0.7014,-0.7052,-0.713,-0.717,-0.7201,-0.722,-0.7245,-0.7234,-0.7226,-0.7253,-0.7254,-0.7255,-0.7262,-0.7264,-0.7236,-0.7236,-0.7236,0,-0.6602,-0.6662,-0.6707,-0.6746,-0.6777,-0.682,-0.6854,-0.689,-0.6961,-0.6982,-0.6988,-0.7088,-0.713,-0.7189,-0.7194,-0.7217,-0.7229,-0.7226,-0.725,-0.7251,-0.7253,-0.7261,-0.7263,-0.7235,-0.7235,-0.7235,-0.7235,0,-0.6635,-0.6677,-0.6696,-0.6763,-0.6796,-0.6833,-0.6885,-0.6914,-0.6941,-0.6979,-0.7031,-0.7084,-0.7142,-0.7158,-0.7185,-0.7222,-0.7224,-0.7239,-0.7249,-0.7251,-0.7259,-0.7263,-0.7232,-0.7233,-0.7233,-0.7234,0,0,-0.661,-0.6702,-0.6709,-0.674,-0.6808,-0.6842,-0.6881,-0.6937,-0.6961,-0.701,-0.7045,-0.7111,-0.7126,-0.7161,-0.7193,-0.7217,-0.723,-0.7229,-0.7232,-0.7228,-0.7274,-0.7262,-0.7265,-0.7247,-0.7248,-0.7248,-0.727,0,-0.6622,-0.6693,-0.6735,-0.6789,-0.6829,-0.6871,-0.6906,-0.6952,-0.6989,-0.7029,-0.707,-0.7116,-0.7131,-0.7153,-0.7178,-0.7223,-0.724,-0.7222,-0.7282,-0.7283,-0.7265,-0.7269,-0.7257,-0.7274,-0.7273,-0.7274,-0.7274,0,-0.6645,-0.6691,-0.6748,-0.6814,-0.6832,-0.6862,-0.6917,-0.6955,-0.701,-0.7035,-0.7074,-0.7107,-0.7153,-0.7159,-0.7224,-0.721,-0.7238,-0.7264,-0.7266,-0.7273,-0.7279,-0.7277,-0.7281,-0.7283,-0.728,-0.7279,-0.7279,0,-0.6621,-0.6698,-0.6743,-0.6769,-0.6846,-0.6866,-0.6899,-0.6954,-0.6985,-0.7034,-0.7056,-0.711,-0.7139,-0.7181,-0.7229,-0.7229,-0.7289,-0.7299,-0.7312,-0.7311,-0.7323,-0.7321,-0.7331,-0.734,-0.734,-0.734,-0.734,0,-0.663,-0.6664,-0.6734,-0.6761,-0.6801,-0.6851,-0.6889,-0.6926,-0.6975,-0.7012,-0.7052,-0.7086,-0.7147,-0.7189,-0.7227,-0.7275,-0.7288,-0.7311,-0.732,-0.7307,-0.7304,-0.7326,-0.7326,-0.7341,-0.734,-0.734,-0.734,0,-0.661,-0.6658,-0.671,-0.6779,-0.6797,-0.6823,-0.6883,-0.6912,-0.6951,-0.6998,-0.7011,-0.7073,-0.7125,-0.7177,-0.7247,-0.7273,-0.732,-0.7333,-0.7301,-0.7306,-0.7317,-0.7315,-0.734,-0.7347,-0.7351,-0.7351,-0.7351,0,-0.6612,-0.6639,-0.6711,-0.6738,-0.677,-0.6813,-0.6845,-0.6896,-0.6928,-0.6993,-0.7015,-0.707,-0.7116,-0.7198,-0.725,-0.7304,-0.7319,-0.7324,-0.7328,-0.7314,-0.732,-0.7318,-0.7321,-0.7322,-0.7322,-0.7322,-0.7322,0,-0.6611,-0.6634,-0.6678,-0.673,-0.6767,-0.6811,-0.6857,-0.6878,-0.6938,-0.6972,-0.7025,-0.7061,-0.7133,-0.7187,-0.7248,-0.7285,-0.7314,-0.732,-0.7326,-0.7313,-0.7293,-0.7305,-0.7297,-0.7319,-0.732,-0.732,-0.732,-0.732,-0.6603,-0.6629,-0.6684,-0.6732,-0.6772,-0.6814,-0.6845,-0.6888,-0.6932,-0.6994,-0.7022,-0.7075,-0.7132,-0.7216,-0.7253,-0.7297,-0.7304,-0.7313,-0.7315,-0.7316,-0.7313,-0.7286,-0.7308,-0.7308,-0.7308,-0.7308,-0.7308,0,-0.6605,-0.6642,-0.6686,-0.6748,-0.6786,-0.6809,-0.6862,-0.6893,-0.6939,-0.6988,-0.7033,-0.7095,-0.7148,-0.7205,-0.7262,-0.7287,-0.7302,-0.73,-0.7299,-0.7307,-0.7303,-0.7292,-0.7287,-0.7287,-0.7287,-0.7287,-0.7287,-0.7287,-0.661,-0.6656,-0.6685,-0.6752,-0.679,-0.6841,-0.687,-0.6909,-0.6949,-0.7016,-0.706,-0.7096,-0.7149,-0.7211,-0.7262,-0.7277,-0.7297,-0.7291,-0.7311,-0.7306,-0.7307,-0.7309,-0.7299,-0.7295,-0.7295,-0.7311,-0.7311,-0.7312]},{"header":{"parameterUnit":"m.s-1","parameterCategory":1,"la1":30.2991,"la2":30.254,"lo1":-89.0895,"lo2":-89.0444,"dy":0.0017,"dx":0.0017,"nx":28,"ny":28,"refTime":"2025-04-24T03:00:00:Z","depth":0,"parameterNumber":3,"parameterNumberName":"V-component_of_WINDS"},"data":[0,0,0,0,0,0,0,0,0,0,0,0,0,0,0,0,0,0,0,0,0,0,0,0,0,0,0,0,0,0,0,0,0,0,0,0,0,0,0,0,0,0,0,0,0,0,0,0,0,0,0,0,0,0,0,0,0,0,0.8414,0.8414,0,0.8431,0.8431,0.8431,0.8433,0.8433,0.8433,0.8433,0.8449,0.845,0.8451,0,0,0,0,0,0,0,0,0,0,0,0,0,0.8384,0.8384,0.8414,0.8414,0.8414,0.8431,0.8431,0.8431,0.8433,0.8433,0.8433,0.8433,0.8449,0.845,0.8451,0,0,0,0,0,0,0,0,0,0,0,0,0,0.8398,0.8385,0.8414,0.8417,0.8418,0.8431,0.8431,0.8431,0.8433,0.8433,0.8433,0.8432,0.8449,0.845,0.8451,0.8461,0,0,0.8454,0.8454,0,0,0,0,0,0,0,0,0.8398,0.84,0.8417,0.8417,0.8418,0.843,0.8427,0.8441,0.8433,0.8427,0.8433,0.8432,0.8443,0.8444,0.8448,0.8462,0.8463,0.8454,0.8454,0.8455,0.8455,0,0,0,0,0,0,0,0.8397,0.8399,0.8421,0.8417,0.8418,0.8418,0.842,0.8429,0.8436,0.8428,0.8428,0.843,0.8443,0.8447,0.8449,0.8463,0.8454,0.8454,0.8455,0.8455,0.8488,0.8488,0,0,0,0,0,0,0.8395,0.8398,0.842,0.8421,0.8407,0.8419,0.8421,0.8426,0.8436,0.8438,0.843,0.843,0.8446,0.8447,0.8449,0.8463,0.8455,0.8455,0.8456,0.8487,0.8488,0.8488,0,0,0,0,0,0,0.8394,0.8397,0.8419,0.841,0.8413,0.842,0.8425,0.8427,0.843,0.8438,0.8439,0.8433,0.8446,0.8448,0.8459,0.8463,0.8456,0.8457,0.8487,0.8488,0.8488,0.8489,0,0,0,0,0,0,0.8393,0.8397,0.8401,0.841,0.8413,0.8428,0.8426,0.8427,0.8432,0.8432,0.8441,0.8442,0.8446,0.8457,0.8459,0.8464,0.8457,0.8487,0.8487,0.8488,0.8489,0.849,0.849,0,0,0,0,0,0.8392,0.84,0.8401,0.8403,0.8418,0.8429,0.8431,0.8434,0.8432,0.8437,0.8442,0.8442,0.8463,0.8458,0.8461,0.8466,0.8486,0.8487,0.8488,0.8488,0.849,0.849,0,0,0,0,0,0,0.8391,0.8401,0.8402,0.8413,0.842,0.8429,0.8434,0.8435,0.8443,0.8443,0.8447,0.8449,0.846,0.8464,0.8459,0.8477,0.8474,0.8476,0.8474,0.8475,0.8476,0.8474,0.8458,0,0,0,0,0,0.8392,0.8399,0.8408,0.8417,0.842,0.8427,0.8431,0.8434,0.8441,0.8444,0.845,0.8457,0.8465,0.8471,0.8478,0.849,0.8492,0.8495,0.8496,0.8496,0.8497,0.8504,0.8505,0.8491,0.8491,0.849,0,0,0.8393,0.84,0.8405,0.8417,0.8422,0.843,0.8429,0.8437,0.8443,0.8445,0.8456,0.8461,0.8469,0.848,0.8486,0.8484,0.8502,0.8497,0.8498,0.8498,0.8505,0.8506,0.8507,0.8491,0.8491,0.8491,0,0,0.8401,0.8407,0.8415,0.8421,0.843,0.8434,0.8436,0.8446,0.8449,0.846,0.8461,0.8469,0.8483,0.8489,0.8493,0.8505,0.8505,0.8507,0.8511,0.8518,0.8519,0.852,0.8524,0.8526,0.8508,0.8508,0.8508,0,0.8402,0.8414,0.8419,0.8427,0.8433,0.8436,0.8444,0.845,0.8461,0.8464,0.8463,0.8481,0.8487,0.85,0.8503,0.8507,0.8509,0.8506,0.8519,0.852,0.8521,0.8525,0.8526,0.8508,0.8508,0.8508,0.8508,0,0.8415,0.8424,0.8429,0.844,0.8446,0.8455,0.8461,0.8467,0.8469,0.8474,0.8485,0.8493,0.8502,0.8506,0.8508,0.8519,0.8518,0.8518,0.8515,0.8522,0.8526,0.8527,0.8509,0.8509,0.8509,0.8509,0,0,0.8421,0.8435,0.8437,0.8442,0.8453,0.846,0.8469,0.8479,0.8483,0.8491,0.8499,0.8511,0.8511,0.8517,0.852,0.8526,0.8535,0.8525,0.8525,0.8526,0.8548,0.8548,0.8549,0.8536,0.8536,0.8536,0.8547,0,0.8429,0.8445,0.845,0.8464,0.8472,0.8475,0.8483,0.8491,0.8496,0.8504,0.8509,0.8518,0.8517,0.852,0.8526,0.8532,0.8539,0.8532,0.8543,0.8543,0.854,0.8551,0.8551,0.8561,0.8549,0.8549,0.8549,0,0.8441,0.845,0.8464,0.8474,0.8478,0.8485,0.8495,0.8502,0.8511,0.8514,0.8521,0.8524,0.8534,0.8531,0.8545,0.854,0.8545,0.8548,0.8549,0.855,0.8546,0.8552,0.8564,0.8566,0.8551,0.8551,0.8551,0,0.8444,0.8459,0.8469,0.8474,0.8486,0.8491,0.8497,0.8505,0.8511,0.852,0.8524,0.8534,0.8539,0.8546,0.8552,0.855,0.8566,0.8563,0.8568,0.8568,0.8571,0.8571,0.8584,0.8575,0.8575,0.8575,0.8575,0,0.8452,0.8461,0.8471,0.8477,0.8487,0.8493,0.8503,0.8509,0.8517,0.8524,0.8528,0.8536,0.8543,0.8551,0.8556,0.8567,0.8569,0.8572,0.8573,0.8571,0.8571,0.8574,0.8574,0.8575,0.8575,0.8575,0.8575,0,0.8457,0.8464,0.8475,0.8487,0.849,0.8496,0.8506,0.8513,0.8518,0.8528,0.8531,0.854,0.855,0.8556,0.8569,0.8572,0.8584,0.8585,0.8581,0.8581,0.8586,0.8586,0.8602,0.8604,0.8594,0.8594,0.8594,0,0.8461,0.8468,0.848,0.8486,0.8491,0.85,0.8507,0.8513,0.852,0.8531,0.8536,0.8547,0.8555,0.8572,0.8579,0.8589,0.859,0.8595,0.8592,0.859,0.859,0.859,0.859,0.8596,0.8596,0.8596,0.8596,0,0.8469,0.8473,0.8481,0.8492,0.8499,0.8508,0.8516,0.852,0.8529,0.8536,0.8546,0.8553,0.8567,0.8577,0.8588,0.8594,0.8596,0.8597,0.8599,0.8597,0.8594,0.8595,0.8582,0.8596,0.8596,0.8596,0.8596,0.8596,0.8474,0.848,0.849,0.85,0.8507,0.8515,0.8522,0.8529,0.8538,0.8549,0.8553,0.8564,0.8574,0.8589,0.8595,0.8604,0.8603,0.8606,0.8606,0.8607,0.8607,0.8593,0.8606,0.8606,0.8606,0.8606,0.8606,0,0.8482,0.8488,0.8497,0.8509,0.8517,0.852,0.8529,0.8536,0.8545,0.8554,0.8563,0.8576,0.8586,0.8595,0.8606,0.8611,0.8613,0.8614,0.8613,0.8614,0.8607,0.8604,0.8612,0.8612,0.8612,0.8612,0.8612,0.8612,0.8487,0.8498,0.8502,0.8517,0.8524,0.8535,0.854,0.8548,0.8555,0.8569,0.8578,0.8583,0.8592,0.8604,0.8614,0.8616,0.862,0.8621,0.8623,0.8616,0.8615,0.8614,0.8612,0.8622,0.8622,0.8631,0.8631,0.8631]}]]